Flag for Canada Weather past 2 weeks in Cape Dorset, Nunavut, Canada

-9 °F


Feels Like: -24 °F
Forecast: N/A
Wind: 7 mph from West

Location: Cape Dorset

Current Time: Nov 28, 2015 at 5:36:36 PM

Latest Report: Nov 28, 2015 at 4:04 PM

Visibility: 9 mi

Pressure: 30.00 "Hg

Humidity: 77%

Dew point: -15 °F

Location of Cape DorsetLocation

Historic Weather in Cape Dorset — Graph


Cape Dorset temperature yesterday

Maximum temperature yesterday: -6 °F (at 12:00 AM)
Minimum temperature yesterday: -15 °F (at 9:00 PM)
Average temperature yesterday: -11 °F

Past Weeks' High & Low Weather Summary

High34 °F (Nov 19, 7:00 PM)100% (Nov 14, 2:00 AM)30.33 "Hg (Nov 14, 2:00 AM)
Low-15 °F (Nov 27, 9:00 PM)70% (Nov 27, 3:00 AM)28.97 "Hg (Nov 19, 5:00 PM)
Average13 °F90%29.81 "Hg
* Reported Nov 13 4:00 PM — Nov 28 4:04 PM, Cape Dorset, Weather by CustomWeather, © 2015

Note: Actual official high and low records may vary slightly from our data, if they occured in-between our weather recording intervals... More about our weather records


Cape Dorset weather history for previous 24 hours

Time TempWeatherWind HumidityBarometerVisibility
4:04 PM
Sat, Nov 28
-9 °FClear.7 mph77%30.00 "Hg9 mi
3:00 PM-11 °FClear.7 mph76%29.97 "Hg9 mi
2:00 PM-13 °FSunny.8 mph83%29.96 "Hg9 mi
1:00 PM-11 °FSunny.8 mph76%29.95 "Hg9 mi
12:00 PM-13 °FSunny.6 mph83%29.94 "Hg9 mi
11:00 AM-9 °FSunny.3 mph77%29.94 "Hg9 mi
10:00 AM-13 °FSunny.3 mph76%29.93 "Hg9 mi
9:00 AM-11 °FClear.5 mph76%29.93 "Hg9 mi
8:00 AM-11 °FClear.3 mph76%29.93 "Hg9 mi
7:00 AM-11 °FClear.No wind76%29.93 "Hg9 mi
6:00 AM-11 °FClear.7 mph76%29.92 "Hg9 mi
5:00 AM-13 °FClear.5 mph76%29.92 "Hg9 mi
4:00 AM-13 °FClear.7 mph76%29.91 "Hg9 mi
3:00 AM-13 °FClear.8 mph76%29.90 "Hg9 mi
2:00 AM-15 °FClear.6 mph76%29.90 "Hg9 mi
1:00 AM-15 °FClear.7 mph76%29.90 "Hg9 mi
12:00 AM-15 °FClear.9 mph76%29.89 "Hg9 mi
11:00 PM
Fri, Nov 27
-15 °FClear.6 mph76%29.88 "Hg9 mi
10:00 PM-13 °FClear.7 mph76%29.88 "Hg9 mi
9:00 PM-15 °FClear.9 mph76%29.88 "Hg9 mi
8:00 PM-13 °FClear.8 mph76%29.88 "Hg9 mi
7:00 PM-13 °FPassing clouds.5 mph83%29.89 "Hg9 mi
6:00 PM-13 °FPassing clouds.5 mph76%29.88 "Hg9 mi
5:00 PM-13 °FPassing clouds.3 mph76%29.88 "Hg15 mi
Weather by CustomWeather, © 2015

See weather overviewHow to use our weather pages